map of IPI home
IPI - Airport
Location
City:  Ipiales, Nariño, Colombia
Near (Alt.):Aldana
Name:San Luis Airport
ICAO:SKIP
IATA:IPI

Details
Type:Airport (Aerodrome, Airfield)
Latitude:0°51'43"N (0.861972)
Longitude:77°40'18"W (-77.671724)
Elevation:9765 ft (2976 m)
Variation:4.09°W (WMM2015 magnetic declination)
-0.15° annual change
Runways:1
Longest:5774 × 92 ft (1760 × 28 m), paved

Time
Time Zone:UTC-5
Local Time:

Weather
METAR:SKIP 091100Z 00000KT 9999 FEW010 BKN080 07/06 A3041

Related Locations
Nearby:
Farthest:RGT: 12450 mi / 20037 km
Rengat [Japura], RI, ID

Find:

   beyond  
but within

Other Information
Maps:
NOTAMs:
Links:
Sources:

  
flag of Colombia
flag of Nariño
  

Sectional Chart

Flight Planning
at skyvector.com

Satellite Image

Google Maps Satellite view

 

Copyright © 2004-2016 Karl L. Swartz. All rights reserved.
The Great Circle Mapper name and logo are trademarks of the Great Circle Mapper.
All other trademarks mentioned herein belong to their respective owners.
Please see credits for attibutions and further copyright information.

  Follow gcmap on Facebook Follow gcmap on Twitter Follow gcmap on Google+ GCmap on LinkedIn

hCard Microformat

Geo Microformat